#timestamp,LO_Frequency,Hit,StdDev 
1514152815.1,286046996.6,N
1514152816.0,286046996.6,N
1514152835.8,286046996.9,N
1514152855.7,286046997.2,N
1514152875.5,286046996.7,N
1514152895.3,286046997.0,N
1514152915.2,286046999.3,N
1514152935.0,286046998.1,N
1514152935.9,286046998.1,N
1514152955.8,286047000.7,N
1514152975.6,286047000.4,N
1514152995.4,286047001.0,N
1514153015.3,286047000.7,N
1514153035.1,286047001.0,N
1514153055.9,286046998.2,N
1514153075.7,286047001.1,N
1514153095.5,286047001.1,N
1514153115.4,286046998.6,N
1514153135.2,286046999.0,N
1514153155.1,286046999.6,N
1514153156.0,286046999.6,N
1514153175.8,286046999.1,N
1514153195.6,286046996.9,N
1514153215.5,286046999.1,N
1514153235.3,286046998.0,N
1514153255.1,286046995.1,N
1514153275.9,286046995.4,N
1514153295.7,286046995.0,N
1514153315.6,286046995.3,N
1514153335.4,286046995.4,N
1514153355.2,286046997.8,N
1514153375.1,286046997.3,N
1514153376.0,286046997.3,N
1514153395.8,286046999.2,N
1514153415.7,286046998.9,N
1514153435.5,286046999.6,N
1514153455.3,286046997.2,N
1514153475.2,286046996.6,N
1514153495.0,286046996.6,N
1514153495.9,286046996.6,N
1514153515.7,286046998.7,N
1514153535.6,286047002.3,N
1514153555.4,286046999.8,N
1514153575.3,286047000.0,N
1514153595.1,286047002.4,N
1514153615.8,286046999.9,N
1514153635.7,286047000.9,N
1514153655.5,286046996.6,N
1514153675.4,286046997.1,N
1514153695.2,286046995.0,N
1514153715.0,286046996.7,N
1514153716.0,286046996.7,N
1514153735.8,286046997.3,N
1514153755.6,286046997.1,N
1514153775.5,286046999.6,N
1514153795.3,286046996.7,N
1514153815.1,286046997.3,N
1514153835.9,286046996.9,N
1514153855.7,286046999.4,N
1514153875.6,286046999.5,N
1514153895.4,286046998.6,N
1514153915.2,286046998.4,N
1514153935.1,286046998.1,N
1514153936.0,286046998.1,N
1514153955.8,286046998.5,N
1514153975.7,286047000.7,N
1514153995.5,286047001.2,N
1514154015.3,286046998.6,N
1514154035.2,286046998.6,N
1514154055.0,286047000.0,N
1514154055.9,286047000.0,N
1514154075.8,286046998.3,N
1514154095.6,286046998.5,N
1514154115.4,286047000.3,N
1514154135.3,286047000.3,N
1514154155.1,286046999.7,N
1514154175.8,286046998.4,N
1514154195.7,286047001.1,N
1514154215.5,286046998.2,N
1514154235.4,286046999.7,N
1514154255.2,286047002.5,N
1514154275.0,286047001.6,N
1514154275.9,286047001.6,N
1514154295.8,286047001.8,N
1514154315.6,286047002.6,N
1514154335.5,286047004.0,N
1514154355.3,286047002.0,N
1514154375.1,286046999.7,N
1514154395.9,286047000.6,N
1514154415.7,286047000.1,N
1514154435.5,286046999.8,N
1514154455.4,286047000.5,N
1514154475.2,286047000.3,N
1514154495.1,286047000.6,N
1514154496.0,286047000.6,N
1514154515.8,286047002.6,N
1514154535.6,286047001.5,N
1514154555.5,286047002.2,N
1514154575.3,286047000.3,N
1514154595.1,286047000.3,N
1514154615.9,286047001.1,N
1514154635.7,286046999.0,N
1514154655.6,286046999.4,N
1514154675.4,286046996.5,N
1514154695.2,286046997.6,N
1514154715.1,286046995.7,N
1514154716.0,286046995.7,N
1514154735.8,286046997.4,N
1514154755.6,286046996.8,N
1514154775.5,286046999.1,N
1514154795.3,286046999.3,N
1514154815.2,286047000.4,N
1514154835.9,286047000.3,N
1514154855.7,286047002.7,N
1514154875.6,286047000.4,N
1514154895.4,286047000.2,N
1514154915.2,286047000.1,N
1514154935.1,286047002.3,N
1514154936.0,286047002.3,N
1514154955.8,286047000.6,N
1514154975.7,286047000.8,N
1514154995.5,286047000.8,N
1514155015.3,286047000.5,N
1514155035.2,286047000.6,N
1514155055.0,286047000.0,N
1514155055.9,286047000.0,N
1514155075.8,286046998.1,N
1514155095.6,286046998.5,N
1514155115.4,286046998.4,N
1514155135.3,286047000.9,N
1514155155.1,286046999.8,N
1514155175.8,286047001.2,N
1514155195.7,286046998.6,N
1514155215.5,286046999.4,N
1514155235.4,286046996.6,N
1514155255.2,286046999.1,N
1514155275.0,286046999.3,N
1514155275.9,286046999.3,N
1514155295.8,286046998.6,N
1514155315.6,286047001.1,N
1514155335.4,286046999.9,N
1514155355.3,286046999.9,N
1514155375.1,286047002.3,N
1514155395.9,286047000.6,N
1514155415.7,286046999.3,N
1514155435.5,286046998.7,N
1514155455.4,286046999.0,N
1514155475.2,286046998.8,N
1514155495.0,286046998.1,N
1514155496.0,286046998.1,N
1514155515.8,286046998.4,N
1514155535.6,286047000.5,N
1514155555.5,286046998.5,N
1514155575.3,286046999.0,N
1514155595.1,286046999.5,N
1514155615.9,286046998.1,N
1514155635.7,286047001.2,N
1514155655.6,286046998.7,N
1514155675.4,286046998.7,N
1514155695.2,286047000.9,N
1514155715.1,286046998.7,N
1514155716.0,286046998.7,N
1514155735.8,286046998.7,N
1514155755.7,286047000.9,N
1514155775.5,286047000.9,N
1514155795.3,286047001.0,N
1514155815.2,286047000.5,N
1514155835.0,286047002.2,N
1514155835.9,286047002.2,N
1514155855.7,286047002.8,N
1514155875.6,286046999.7,N
1514155895.4,286047001.6,N
1514155915.3,286047002.5,N
1514155935.1,286047002.6,N
1514155936.0,286047002.6,N
1514155955.8,286047000.4,N
1514155975.7,286046998.2,N
1514155995.5,286046998.7,N
1514156015.4,286046999.4,N
1514156035.2,286046999.3,N
1514156055.0,286046996.8,N
1514156055.9,286046996.8,N
1514156075.8,286046995.7,N
1514156095.6,286046997.2,N
1514156115.4,286046996.7,N
1514156135.3,286046998.7,N
1514156155.1,286046999.3,N
1514156175.9,286046998.6,N
1514156195.7,286047000.5,N
1514156215.5,286047002.5,N
1514156235.4,286047001.8,N
1514156255.2,286047004.1,N
1514156275.1,286047001.6,N
1514156276.0,286047001.6,N
1514156295.8,286047001.5,N
1514156315.6,286047003.4,N
1514156335.5,286047005.5,N
1514156355.3,286047005.5,N
1514156375.1,286047003.1,N
1514156395.9,286047003.0,N
